EW5610 Weather Reports


time (UTC)temp
F
wind
direction
speed
knots
gust
knots
rain 1hr
in
rain 24hr
in
rain mn
in
humidity
%
barometer
mb
20260502191551 55 165 1.7 9.6 0.00 0.01 0.01 75 1007.8
20260502190052 54 172 3.5 8.7 0.00 0.01 0.01 76 1008.0
20260502184549 54 155 3.5 10.4 0.00 0.01 0.01 76 1008.2
20260502183047 53 206 4.3 7.0 0.00 0.01 0.01 78 1008.3
20260502181544 53 211 0.9 7.0 0.00 0.01 0.01 80 1008.4
20260502163038 50 206 0.0 0.0 0.01 0.01 0.01 88 1009.0
20260502161537 50 206 0.0 3.5 0.01 0.01 0.01 88 1009.2
20260502151539 50 207 4.3 6.1 0.00 0.00 0.00 87 1009.5
20260502123027 50 210 0.0 0.0 0.00 0.00 0.00 84 1009.6
20260502121534 49 210 0.0 0.0 0.00 0.00 0.00 86 1009.8
20260502114525 48 210 0.0 0.0 0.00 0.00 0.00 88 1009.8
20260502113025 48 209 0.0 0.0 0.00 0.00 0.00 87 1009.9
20260502111524 48 209 0.0 0.0 0.00 0.00 0.00 87 1009.8
20260502110023 47 210 0.0 0.0 0.00 0.00 0.00 88 1009.4
20260502104538 47 210 0.0 0.0 0.00 0.00 0.00 88 1009.4
20260502103027 47 210 0.0 0.0 0.00 0.00 0.00 87 1009.3
20260502101521 46 209 0.0 0.0 0.00 0.00 0.00 87 1009.4
20260502091522 47 210 0.0 5.2 0.00 0.00 0.00 85 1009.1
20260502071510 48 209 0.9 6.1 0.00 0.00 0.00 79 1009.3
20260502070008 48 209 3.5 7.0 0.00 0.00 0.00 79 1009.3
20260502064510 48 209 3.5 6.1 0.00 0.00 0.00 78 1009.3
20260502063005 48 210 1.7 6.1 0.00 0.00 0.00 78 1009.1
20260502061503 48 210 1.7 4.3 0.00 0.00 0.00 78 1009.3
20260502060002 48 210 1.7 3.5 0.00 0.00 0.00 78 1009.6
20260502054502 48 210 2.6 6.1 0.00 0.00 0.00 77 1009.7
20260502053101 48 210 2.6 5.2 0.00 0.00 0.00 76 1009.5
20260502051652 49 210 2.6 7.0 0.00 0.00 0.00 75 1009.9
20260502050059 49 211 4.3 6.1 0.00 0.00 0.00 75 1009.9
20260502044605 49 211 3.5 6.1 0.00 0.00 0.00 76 1009.9
20260502043052 49 211 3.5 7.0 0.00 0.00 0.00 75 1009.9
20260502041550 49 212 3.5 6.1 0.00 0.00 0.00 75 1010.0
20260502040049 49 212 1.7 6.1 0.00 0.00 0.00 75 1009.9
20260502034549 49 211 2.6 6.1 0.00 0.00 0.00 74 1009.9
20260502033053 49 212 0.0 3.5 0.00 0.00 0.00 74 1010.0
20260502031606 50 212 1.7 4.3 0.00 0.00 0.00 73 1010.1
20260502030047 50 212 1.7 6.1 0.00 0.00 0.00 72 1010.0
20260502024552 50 212 1.7 5.2 0.00 0.00 0.00 71 1009.9
20260502023046 50 212 2.6 5.2 0.00 0.00 0.00 71 1010.1
20260502021545 50 212 1.7 4.3 0.00 0.00 0.00 70 1010.0
20260502020050 50 212 0.9 7.0 0.00 0.00 0.00 69 1009.9
20260502014544 50 212 2.6 6.1 0.00 0.00 0.00 69 1010.0
20260502013048 50 212 0.0 6.1 0.00 0.00 0.00 68 1009.9
20260502011549 51 212 5.2 8.7 0.00 0.00 0.00 67 1010.1
20260502010047 51 212 1.7 7.8 0.00 0.00 0.00 66 1009.9
20260502004543 51 213 3.5 7.8 0.00 0.01 0.00 64 1009.6
20260502003041 52 215 1.7 8.7 0.00 0.01 0.00 62 1009.4
20260502001541 53 215 5.2 11.3 0.00 0.01 0.00 60 1009.3
20260502000040 54 216 5.2 11.3 0.00 0.01 0.00 58 1008.8
20260501234550 55 219 4.3 14.8 0.00 0.01 0.00 53 1008.5
20260501233040 56 211 3.5 9.6 0.00 0.01 0.00 47 1008.3
20260501231554 58 213 6.1 11.3 0.00 0.01 0.00 39 1008.0
20260501230039 58 219 4.3 11.3 0.00 0.01 0.00 38 1007.8
20260501224539 58 211 5.2 10.4 0.00 0.01 0.00 38 1007.8
20260501223038 58 215 7.8 14.8 0.00 0.01 0.00 38 1007.8
20260501221537 59 221 3.5 14.8 0.00 0.01 0.00 38 1007.7
20260501220036 59 218 3.5 9.6 0.00 0.01 0.00 38 1007.5
20260501214549 59 205 7.0 13.0 0.00 0.01 0.00 37 1007.6
20260501213039 59 213 4.3 12.2 0.00 0.01 0.00 38 1007.3
20260501211534 60 215 4.3 14.8 0.00 0.01 0.00 39 1007.3
20260501210033 59 211 6.1 11.3 0.00 0.01 0.00 39 1007.2
20260501204532 59 228 7.0 14.8 0.00 0.01 0.00 39 1007.3
20260501203031 58 192 6.1 13.9 0.00 0.01 0.00 41 1007.2
20260501201537 59 229 7.0 13.0 0.00 0.01 0.00 40 1007.3
20260501200030 58 250 7.0 16.5 0.00 0.01 0.00 41 1007.3
20260501194533 59 207 10.4 15.6 0.00 0.01 0.00 41 1007.2
20260501193032 59 204 3.5 11.3 0.00 0.01 0.00 43 1007.3